Back to catalog

COSMOS 2251 DEB

AliveLEO
NORAD 35890·DEBRIS·🇷🇺 Russia

Launched Jun 16, 1993 from Plesetsk Cosmodrome

Loading…

Next Passes (next 24 hours)

TLE

FreshSource: Space-Track

Epoch: Sep 14, 2026, 04:16 UTC

1 35890U 93036AUD 26257.17810910  .00004672  00000-0  94066-3 0  9992
2 35890  73.9334  74.2679 0053695 137.8640 222.6673 14.60912286691696

Track COSMOS 2251 DEB in real time with AllMySat

Download on the App Store